AirNav   TITAN Aviation Fuels
 
 1091 users online  

17CL Las Trancas Airport
Davenport, California, USA

GOING TO DAVENPORT?


FAA INFORMATION EFFECTIVE 20 MAY 2021

Location

FAA Identifier: 17CL
Lat/Long: 37-05-16.8120N 122-16-24.8950W
37-05.280200N 122-16.414917W
37.0880033,-122.2735819
(estimated)
Elevation: 125 ft. / 38 m (estimated)
Variation: 16E (1985)
From city: 6 miles NW of DAVENPORT, CA
Time zone: UTC -7 (UTC -8 during Standard Time)
Zip code: 95017

Airport Operations

Airport use: Private use. Permission required prior to landing
Activation date: 01/1967
Control tower: no
ARTCC: OAKLAND CENTER
FSS: OAKLAND FLIGHT SERVICE STATION
Attendance: UNATNDD
Wind indicator: yes
Segmented circle: no

Nearby radio navigation aids

VOR radial/distance  VOR name  Freq  Var
OSIr162/18.3WOODSIDE VOR/DME113.9017E
SJCr206/23.3SAN JOSE VOR/DME114.1016E
SFOr154/32.2SAN FRANCISCO VOR/DME115.8017E
OAKr167/38.3OAKLAND VOR/DME116.8017E

Airport Services

Airframe service: NONE
Powerplant service: NONE

Runway Information

Runway 14/32

Dimensions: 1300 x 30 ft. / 396 x 9 m
Surface: gravel
RUNWAY 14  RUNWAY 32
Traffic pattern: rightleft

Airport Ownership and Management from official FAA records

Ownership: Privately-owned
Owner: BIG CREEK LUMBER CO
3564 HWY 1
DAVENPORT, CA 95017
Phone (831) 457-5015
Manager: KENNETH MC CRARY
3564 HWY 1
DAVENPORT, CA 95017
Phone (831) 457-5028

Airport Operational Statistics

Aircraft based on the field: 1
Single engine airplanes: 1
    

Additional Remarks

TURBULENCE SW END DURING NW WIND IN EXCESS OF 15 KTS.
P-LINE 200' E OF RWY.
PHONE OR CONTACT OWNER BEFORE LANDING.
FOR CD CTC NORCAL APCH AT 916-361-3748.

Instrument Procedures

There are no published instrument procedures at 17CL.

Some nearby airports with instrument procedures:

KNUQ - Moffett Federal Airfield (22 nm NE)
KSJC - Norman Y Mineta San Jose International Airport (23 nm NE)
KPAO - Palo Alto Airport (24 nm N)
KWVI - Watsonville Municipal Airport (25 nm E)
KSQL - San Carlos Airport (25 nm N)
 
Loc | Ops | Rwys | IFR | FBO | Links
Com | Nav | Svcs | Stats | Notes
Area around 17CL (Las Trancas Airport)
 
Road maps at: MapQuest Bing Google
 
Aerial photo
WARNING: Photo may not be current or correct
Aerial photo of 17CL (Las Trancas Airport)
Photo by Kenneth and Gabrielle Adelman
Photo taken 04-Oct-2013
looking northeast.

Do you have a better or more recent aerial photo of Las Trancas Airport that you would like to share? If so, please send us your photo.

 
Sectional chart

 
Airport distance calculator
Flying to Las Trancas Airport? Find the distance to fly.

From to 17CL

Sunrise and sunset
Times for 13-Jun-2021
 Local
(UTC-7)
 Zulu
(UTC)
Morning civil twilight05:1912:19
Sunrise05:5012:50
Sunset20:2903:29
Evening civil twilight21:0004:00

Current date and time
Zulu (UTC)  13-Jun-2021 22:01:55
Local (UTC-7)  13-Jun-2021 15:01:55
 
METAR
KNUQ 
23nm NE 
132130Z AUTO 35016KT 10SM CLR 23/15 A2994 RMK AO2
KSJC 
24nm NE 
132153Z 31012KT 10SM FEW035 25/13 A2994 RMK AO2 SLP136 T02500133 $
KPAO 
24nm N 
132147Z 34016KT 10SM FEW025 23/16 A2994
KWVI 
25nm E 
132153Z AUTO 23010KT 10SM CLR 23/14 A2997 RMK AO2 SLP149 T02280144
KSQL 
26nm N 
132057Z 27009G17KT 10SM FEW010 24/13 A2995
KRHV 
26nm NE 
132147Z 29012KT 10SM FEW050 26/14 A2994
KHAF 
28nm NW 
132155Z AUTO 30008KT 2 1/2SM BR BKN003 17/15 A3000 RMK AO2 VSBY 1 1/4V5
KSFO 
32nm N 
132156Z 29020KT 10SM FEW006 FEW030 24/13 A2996 RMK AO2 PK WND 27027/2129 SLP144 T02440133 $
KE16 
32nm E 
132135Z AUTO 31007KT 260V320 10SM CLR 28/14 A2993 RMK AO2 PWINO PNO
KOAR 
35nm SE 
134.025 831-384-2967
132155Z AUTO 27012G16KT 10SM CLR 19/13 A2998 RMK AO2
TAF
KSJC 
24nm NE 
131737Z 1318/1418 33007KT P6SM FEW015 SCT035 FM132000 33014KT P6SM FEW030 FM140400 33008KT P6SM FEW015 FM140900 33005KT P6SM BKN015 FM141700 31004KT P6SM SCT015
NOTAMs
Click for the latest NOTAMs
NOTAMs are issued by the DoD/FAA and will open in a separate window not controlled by AirNav.

 

 
 

Would you like to see your business listed on this page?

 If your business provides an interesting product or service to pilots, flight crews, aircraft, or users of the Las Trancas Airport, you should consider listing it here.  To start the listing process, click on the button below
 
Add a business
 

Other Pages about Las Trancas Airport

Update a link
 
Copyright © AirNav, LLC. All rights reserved. Privacy Policy  Contact